Theta_e
335 335 333 332 334 337 339 337 335 335 337 339 340 340 341 341 341 341 341 341 341 340 340 340 340 340 341 340 340 339 338 334 327 324 323 322 322 322 321 321 321 320 320 320 320 320 321 323 324 325 326 327 327 327 327 327 328 329 329 329 329 330 330 331 332 332 333 334 336 337 338 339 340 341 342 342 342 343 343 344 345 345 346 346 345
335 334 334 335 338 340 340 340 339 339 339 340 340 340 341 341 341 341 341 341 340 340 340 341 341 341 342 341 341 340 338 333 329 326 321 320 321 321 321 320 320 320 319 320 321 323 324 325 326 327 327 327 327 326 327 328 329 330 331 331 330 331 331 331 332 333 334 335 336 337 338 338 339 339 340 341 341 342 343 344 345 346 346 347 347
335 336 337 339 340 340 340 340 340 340 340 340 340 340 340 340 341 341 341 341 340 340 341 341 341 341 342 342 341 341 340 335 332 330 324 321 320 320 320 320 320 320 321 323 324 325 326 326 326 326 326 326 326 327 329 330 331 331 331 331 331 331 331 332 332 332 333 334 335 336 336 337 337 338 339 340 341 342 343 344 345 346 347 347 347
337 338 339 339 339 339 339 340 340 341 341 341 341 340 340 340 341 341 342 342 342 341 342 342 341 341 341 342 342 342 341 339 336 334 331 327 323 320 320 320 321 323 324 325 326 326 326 325 326 326 327 327 328 329 330 331 331 331 331 331 331 332 332 333 333 333 334 335 335 336 336 337 337 338 339 341 341 342 343 345 345 346 347 347 346
338 339 339 339 339 339 340 341 341 341 341 341 341 341 341 341 341 342 342 342 342 342 342 342 341 341 341 342 342 342 341 341 338 337 337 333 327 323 322 322 324 325 326 327 327 327 327 327 328 328 329 330 330 331 331 330 330 331 332 332 333 334 334 335 335 335 336 337 337 338 338 338 338 339 341 341 342 343 344 345 346 347 348 347 346
339 340 341 341 341 342 343 343 343 343 342 341 341 341 341 341 341 342 342 342 342 342 342 342 341 342 342 342 342 342 341 340 338 338 338 335 331 328 326 324 325 326 327 327 328 329 329 329 329 330 330 331 331 331 330 330 331 333 334 335 336 337 338 339 339 340 340 340 340 339 338 338 339 340 342 343 343 343 344 345 347 348 348 348 346
341 342 343 344 344 344 345 345 345 345 344 342 342 342 341 341 341 341 341 341 341 342 342 342 341 341 342 342 341 341 341 340 339 338 338 338 337 334 330 328 327 327 327 327 328 329 329 330 330 331 331 331 331 331 330 331 334 336 337 339 340 341 342 343 343 344 343 343 341 339 337 336 337 339 341 342 343 343 344 345 346 347 348 347 346
343 344 344 345 345 345 345 346 345 346 345 344 343 343 343 342 341 341 341 341 341 341 341 342 342 342 342 342 341 341 341 341 340 340 340 340 340 338 336 334 333 332 330 328 328 328 328 331 334 335 334 333 331 330 331 334 337 339 340 341 342 344 344 344 344 344 343 342 339 335 333 333 333 335 337 338 340 340 341 343 344 345 345 345 343
345 345 345 345 344 344 344 345 345 345 345 344 344 344 344 343 343 342 341 341 340 340 341 342 343 342 342 342 341 341 341 340 340 340 341 341 341 340 340 338 338 338 337 335 334 331 331 335 338 340 338 334 332 332 334 338 340 341 341 342 344 347 347 346 344 342 340 338 333 329 328 329 329 329 331 332 333 334 335 337 339 340 340 339 338
345 345 345 345 343 342 343 344 344 344 344 344 344 344 344 344 345 344 342 341 341 341 342 343 343 343 342 342 341 341 341 340 339 340 341 341 341 341 340 339 339 339 339 339 338 336 336 338 340 341 339 335 334 336 338 340 341 342 343 343 345 346 346 347 346 342 340 336 330 327 326 326 326 326 326 327 328 328 329 330 332 333 334 333 332
345 345 345 344 343 343 342 343 345 345 345 345 344 344 344 345 345 346 344 342 341 341 342 342 343 343 342 342 341 341 341 340 339 340 340 341 341 340 340 339 339 339 339 340 340 339 339 339 340 341 340 338 338 339 341 342 342 343 344 345 345 345 345 346 347 344 343 338 331 327 327 325 325 327 327 328 328 328 328 328 329 330 331 331 331
345 345 344 344 343 343 343 344 346 347 346 345 344 344 345 346 346 347 346 344 342 341 342 343 343 342 342 342 342 341 341 340 340 340 340 341 340 340 340 339 339 339 339 340 341 341 340 340 341 341 340 340 340 342 342 343 343 343 344 345 345 344 345 346 347 346 345 343 335 330 329 328 328 332 333 333 333 332 332 332 332 332 331 332 331
345 345 345 344 343 344 343 344 347 347 346 344 344 345 346 347 347 347 347 345 343 342 342 342 342 342 342 342 341 341 340 340 340 340 340 340 340 340 340 339 339 339 339 340 340 340 340 341 342 341 341 341 341 342 343 343 343 343 343 344 345 344 344 346 347 346 346 346 341 335 333 333 334 337 338 338 337 336 336 336 337 337 336 336 335
345 346 346 345 344 344 343 344 347 348 346 344 344 346 347 348 348 348 347 346 344 343 342 342 342 342 341 341 340 339 340 340 340 340 340 340 340 340 340 339 339 338 339 339 340 341 341 341 341 342 342 342 342 343 344 344 343 343 343 343 344 344 344 345 346 347 346 346 344 340 337 338 338 340 340 341 341 340 339 339 339 339 340 340 340
345 346 347 347 346 345 344 345 348 349 347 346 345 346 348 349 349 348 347 345 344 343 342 342 341 342 341 341 341 340 339 340 340 340 340 340 339 340 340 340 339 339 339 339 339 340 341 341 341 342 342 342 342 343 344 344 344 344 344 343 343 344 344 344 346 347 347 345 345 342 339 339 340 341 342 342 342 342 342 342 341 341 340 342 343
346 346 347 347 346 345 344 345 348 348 347 346 346 347 348 349 349 348 347 345 343 343 343 342 341 341 341 341 342 340 340 340 340 340 340 340 340 340 339 339 339 339 339 340 340 340 341 341 341 341 341 341 341 342 343 344 344 344 344 345 344 344 343 343 345 347 346 345 344 342 339 340 341 342 342 342 343 343 343 343 343 343 342 341 342
345 346 346 347 346 345 344 345 346 346 345 345 346 347 348 349 349 348 347 346 344 343 344 343 341 341 341 341 342 341 341 341 340 340 340 341 341 341 340 339 339 339 339 340 341 341 341 341 341 341 341 342 341 342 342 342 344 344 344 346 344 343 343 343 345 346 345 344 345 344 340 339 341 342 342 343 343 343 343 343 343 343 342 342 341
342 344 344 345 345 344 344 344 344 344 344 345 346 347 348 349 349 348 347 346 345 344 344 344 343 341 341 342 342 342 342 342 342 341 341 340 341 341 340 339 339 339 340 341 341 341 341 342 342 342 341 341 341 341 341 341 343 344 345 346 344 342 343 344 346 346 344 344 345 344 342 342 342 342 343 343 342 341 341 341 341 341 339 339 340
341 341 342 343 345 344 343 344 343 343 344 346 347 348 349 349 349 349 348 347 346 345 345 345 345 343 343 343 343 343 343 343 343 343 342 342 341 340 340 340 339 339 339 339 340 341 341 341 341 341 341 341 341 341 341 342 343 344 345 345 343 343 345 346 347 346 344 343 344 344 344 343 343 343 343 342 341 339 338 338 338 338 337 337 339
341 341 341 343 344 344 344 345 344 344 346 347 349 348 348 349 349 349 349 348 347 346 346 346 345 345 344 343 343 343 344 344 344 344 343 343 342 342 341 341 341 341 340 339 340 340 341 341 342 342 342 341 342 342 342 342 344 345 346 345 344 344 345 345 345 344 343 343 344 344 344 344 343 343 343 342 340 338 337 337 337 337 337 338 339
341 341 342 342 343 344 345 345 344 345 346 348 349 348 348 348 348 348 348 349 348 348 348 347 347 346 346 345 344 344 345 345 344 344 344 344 343 343 342 342 342 342 342 341 341 342 342 342 342 342 342 342 342 343 343 343 345 345 345 345 344 345 345 345 344 343 344 344 343 343 343 343 343 343 343 342 340 338 337 336 337 338 339 338 339
341 341 342 343 344 344 344 345 344 345 347 348 349 348 348 349 348 346 346 348 349 349 348 348 347 347 347 347 347 346 346 345 345 344 344 343 343 343 343 343 343 343 342 342 342 342 342 342 342 342 343 344 343 343 343 344 345 345 345 345 345 346 346 345 344 344 344 344 343 342 341 342 342 341 341 340 339 339 338 338 339 340 341 341 341
341 342 342 343 346 345 343 344 345 344 345 347 349 349 348 349 348 344 343 346 347 348 349 348 348 347 347 348 348 347 346 346 346 345 344 344 343 344 344 344 344 344 343 343 343 343 344 344 344 345 345 345 344 344 345 346 346 346 346 346 346 346 346 345 345 345 344 344 343 342 342 342 341 340 339 339 340 340 340 341 342 343 343 344 344
341 341 342 343 345 344 342 343 345 344 344 346 348 349 349 350 348 344 343 344 345 346 347 347 348 347 347 348 348 347 347 346 346 345 345 345 344 344 344 344 344 344 343 343 344 345 345 345 346 346 345 345 345 345 346 346 346 346 346 346 346 346 346 345 345 344 344 343 343 344 344 345 344 342 342 342 342 341 341 342 343 344 344 345 345
341 341 342 343 344 343 342 343 344 344 344 345 348 349 349 349 348 346 346 346 345 345 345 345 346 346 347 348 347 347 347 346 346 346 345 345 345 345 345 345 345 345 344 344 344 345 345 345 346 346 345 345 346 346 346 346 346 346 347 347 346 346 346 345 344 343 343 343 344 345 346 345 346 345 344 343 342 341 342 343 344 345 346 346 347
340 341 343 344 344 343 342 343 344 344 344 345 346 347 347 348 349 348 349 349 347 345 344 344 344 344 345 346 346 346 347 347 347 347 346 345 345 346 347 347 346 346 346 345 345 344 344 345 346 347 346 346 346 347 347 346 345 346 346 347 346 346 345 343 342 341 342 343 344 345 345 344 344 344 344 343 342 342 342 343 344 345 346 346 347
343 343 344 345 345 344 343 343 343 343 343 344 344 345 345 347 349 349 350 351 349 347 345 344 344 344 345 346 348 348 348 348 348 347 347 347 348 348 348 348 347 347 345 343 344 344 343 345 347 347 347 347 346 346 346 345 344 344 344 344 344 343 343 342 341 342 343 344 345 344 343 342 342 341 342 342 342 342 343 343 343 343 344 345 346
347 346 345 345 344 344 344 343 343 343 343 343 343 344 345 346 347 347 348 349 350 349 347 345 345 345 345 346 348 349 349 349 349 349 349 348 349 348 349 349 348 347 345 342 343 345 344 345 347 347 346 345 344 343 342 342 341 340 341 342 342 342 342 342 342 343 344 345 344 343 342 342 342 342 341 342 342 342 342 343 343 343 343 344 344
348 347 346 346 345 345 345 344 344 343 343 343 344 345 346 346 345 344 345 346 347 348 348 346 345 345 345 345 346 348 350 350 350 350 350 349 349 350 350 350 349 349 347 345 345 345 347 347 346 345 344 341 340 339 340 340 340 340 340 342 343 341 341 342 343 344 344 343 342 342 342 342 342 343 342 342 342 342 343 343 343 343 343 343 342
348 347 347 346 345 346 346 346 346 345 344 343 344 345 346 346 344 343 343 344 344 344 345 344 344 345 345 345 345 347 349 350 350 350 350 349 350 351 352 351 350 350 349 349 347 346 347 347 346 344 341 338 337 336 336 338 338 338 339 341 341 339 341 343 344 344 343 342 342 342 343 344 343 343 343 343 344 344 345 345 346 346 346 346 345
348 347 346 346 346 346 347 348 348 347 346 345 345 345 345 344 344 343 343 343 343 343 343 343 343 344 345 345 344 345 349 350 350 349 349 350 351 352 352 352 351 350 350 349 348 347 347 347 347 346 344 340 338 334 331 331 330 330 332 334 336 338 342 344 344 343 342 341 343 343 344 344 343 344 345 346 347 347 348 349 350 351 351 351 351
346 346 346 345 346 345 346 347 347 347 346 346 346 345 344 344 343 343 343 344 344 343 343 343 343 343 344 343 343 345 348 350 350 350 349 350 351 351 352 352 351 350 350 349 348 347 346 346 346 347 345 342 340 335 330 328 329 330 331 333 336 340 343 343 343 342 341 342 344 344 345 344 344 346 348 349 349 350 351 352 353 353 354 354 353
344 344 344 344 345 345 345 345 346 347 346 346 347 347 346 344 343 343 343 343 343 343 344 343 343 343 344 344 344 346 348 350 350 350 350 350 350 350 350 351 350 350 350 349 348 347 346 346 346 346 345 342 339 336 333 331 330 332 334 336 340 342 343 343 342 341 342 343 344 345 345 345 346 349 349 350 351 352 353 353 354 354 354 354 353
343 343 342 343 345 346 346 346 347 348 348 348 348 348 347 346 344 344 343 343 343 343 343 343 343 344 344 344 344 345 348 350 350 350 350 349 348 348 349 350 349 349 349 349 348 347 346 345 345 345 344 342 340 340 340 337 334 334 336 338 341 342 342 341 341 342 343 344 344 345 345 346 348 350 350 351 351 352 353 353 353 354 354 353 353
342 342 343 344 345 346 347 348 349 350 350 349 348 347 347 347 346 345 345 344 344 344 343 343 344 344 344 344 343 344 347 349 350 350 349 347 346 347 349 350 350 349 348 348 347 347 346 345 344 345 344 342 342 343 344 341 338 336 336 338 340 340 340 340 342 343 343 344 345 345 345 346 350 351 351 350 351 351 352 352 352 352 352 352 352
341 343 344 345 346 346 347 348 349 350 350 350 350 348 346 345 345 345 345 344 344 344 344 344 345 345 345 344 344 344 346 348 349 350 348 345 345 348 349 350 349 348 347 347 347 347 346 345 345 345 344 344 344 346 345 342 339 337 337 338 339 339 340 341 342 343 343 344 345 345 345 347 350 352 350 349 349 350 351 351 351 350 350 349 350
342 344 345 347 348 348 348 348 349 349 349 350 350 349 346 344 342 343 344 345 346 346 345 344 344 346 346 346 345 345 346 347 347 348 347 345 346 348 349 348 348 348 348 348 348 347 347 347 346 346 345 345 346 347 346 342 338 337 338 338 339 339 340 341 343 343 343 344 345 345 345 347 351 351 348 346 345 346 347 348 349 349 348 348 347
342 343 346 348 349 349 350 350 351 351 350 349 349 349 349 348 346 344 345 348 349 349 348 347 345 345 346 346 347 347 347 346 345 345 346 347 348 349 349 348 348 348 348 348 348 348 347 347 346 346 346 346 347 347 346 342 340 339 340 339 340 340 341 341 342 343 343 344 345 346 344 346 348 346 345 344 341 340 342 343 344 345 346 346 346
342 343 346 349 350 350 351 352 352 352 351 350 350 350 350 350 349 347 346 349 351 351 351 350 348 346 346 346 348 350 349 347 346 346 347 348 349 349 349 349 348 348 348 348 348 348 348 347 346 346 347 347 347 347 345 343 343 344 343 341 340 340 340 341 342 343 343 344 345 345 342 341 341 342 342 339 335 336 340 342 343 345 346 346 347
341 344 347 350 351 351 352 352 352 352 351 351 351 351 350 350 350 349 349 349 350 350 350 350 350 349 348 348 348 349 349 348 347 347 347 348 349 350 349 349 349 349 348 348 348 347 347 347 347 347 348 349 348 347 345 344 345 346 345 343 341 341 341 342 343 344 343 344 345 344 338 331 333 338 336 329 332 340 344 345 345 346 347 347 347
340 343 348 351 351 352 352 352 352 352 351 351 350 351 351 351 351 350 350 351 351 349 348 349 350 350 349 348 348 349 349 349 349 348 348 349 350 351 350 350 349 348 347 347 347 347 347 347 347 348 349 349 348 348 347 346 347 347 346 344 343 343 343 343 344 344 344 344 345 344 336 325 327 333 327 324 336 345 347 347 346 346 347 347 347
340 341 345 349 351 352 352 352 352 352 352 351 351 351 351 352 352 351 350 350 350 349 347 346 347 349 349 349 350 351 351 351 351 351 350 351 351 351 350 350 349 348 346 347 347 347 347 347 346 348 348 348 348 348 347 347 347 347 346 345 343 344 344 344 344 344 344 345 345 345 340 328 325 327 321 324 340 347 347 347 347 346 347 347 347
341 341 342 345 348 350 352 352 352 352 352 352 352 351 351 351 351 351 351 351 351 350 347 345 344 345 347 349 351 352 352 352 352 352 352 352 352 352 351 350 349 347 346 346 346 346 346 346 346 347 348 348 348 348 347 346 346 346 346 345 345 345 345 345 345 345 345 345 345 346 344 333 324 322 318 322 338 346 347 346 345 346 346 346 346
344 343 343 344 346 348 350 351 352 352 351 351 350 349 349 350 350 350 351 351 351 351 349 347 344 343 344 346 349 351 352 352 352 352 351 352 352 352 351 350 349 348 347 347 346 346 346 346 346 347 347 348 348 348 347 345 345 346 346 346 346 346 346 346 345 345 345 345 346 347 345 335 324 320 318 318 327 339 345 345 344 344 345 344 344
348 347 347 347 348 348 350 351 350 350 349 349 348 347 348 350 350 350 350 350 350 350 350 349 347 344 343 344 346 348 349 351 353 352 352 352 351 351 350 350 349 348 348 347 347 347 347 347 347 347 347 347 347 346 346 345 346 346 346 346 346 347 347 346 345 345 345 345 346 347 344 336 324 319 319 317 319 326 335 340 341 340 340 341 340
348 349 349 350 350 350 351 350 350 349 348 348 348 348 349 350 350 350 350 350 349 349 350 349 348 347 345 345 345 345 347 350 352 353 352 351 350 349 348 348 348 348 348 347 347 346 346 346 346 345 345 345 345 345 345 346 346 346 346 346 347 347 347 345 344 345 345 346 346 346 344 336 326 320 320 318 317 321 327 333 336 336 334 334 334
348 349 349 350 350 350 350 350 349 349 349 349 348 348 349 350 351 351 350 349 348 348 348 348 348 348 348 348 347 346 346 349 351 352 350 349 348 347 346 347 348 348 347 347 346 345 345 344 343 343 343 344 344 345 346 346 346 345 345 346 347 346 345 345 345 346 346 346 346 346 343 337 326 320 320 319 318 322 328 331 332 331 328 328 328
348 348 348 348 349 348 348 348 349 350 349 349 348 348 348 349 350 350 350 349 349 348 348 348 347 347 348 349 349 348 348 349 349 348 348 347 347 346 346 346 346 346 346 345 344 343 342 341 341 341 342 343 343 344 346 346 346 346 346 346 346 346 345 346 347 346 346 345 345 345 342 335 326 320 320 319 317 321 328 331 329 327 326 325 324
349 349 349 348 349 348 348 349 350 350 351 350 350 349 349 349 349 349 349 349 349 349 349 348 347 347 349 350 350 349 349 348 347 346 346 346 346 346 346 346 346 345 344 343 343 343 341 341 341 341 343 344 344 345 346 346 346 347 346 346 346 345 345 345 345 345 344 344 344 342 336 330 323 320 319 319 317 320 325 327 326 325 325 323 321
350 350 351 350 350 350 350 350 350 350 351 351 351 350 350 350 350 350 349 349 349 349 349 348 348 347 348 350 351 350 349 348 348 346 345 345 346 347 347 346 346 345 344 344 344 345 343 342 342 344 345 345 346 347 347 347 347 346 345 345 344 343 343 343 343 343 341 339 337 333 327 323 321 319 318 317 316 318 321 323 324 324 323 320 317
349 349 349 350 350 350 349 349 349 350 350 350 350 350 351 351 351 350 350 349 349 349 349 349 349 348 348 349 350 350 350 350 349 349 347 346 346 346 346 345 344 344 346 346 346 346 346 345 345 346 347 347 347 347 346 346 345 344 344 343 343 343 341 338 334 331 327 325 323 321 319 319 319 318 317 316 316 316 319 321 323 321 319 317 315
Wind_Speed
15 15 15 15 15 14 13 13 12 12 11 9 8 6 5 4 3 2 2 2 1 1 0 2 4 6 7 7 7 7 8 11 12 11 10 10 10 10 10 10 10 10 10 10 11 11 12 12 12 12 12 12 12 12 12 11 11 11 12 12 12 13 13 14 14 14 14 14 13 13 13 12 12 12 13 13 13 13 13 13 14 14 14 15 15
15 15 15 14 14 13 13 13 12 10 9 8 7 6 4 2 1 1 2 2 3 2 2 2 3 4 5 7 7 7 8 10 12 12 11 10 10 10 10 10 10 10 11 11 12 12 12 12 12 12 12 12 12 12 12 12 12 13 13 13 13 14 14 14 13 13 13 12 12 12 12 12 12 12 12 12 12 12 12 13 13 13 13 13 14
15 15 14 13 13 13 12 11 10 9 8 7 7 5 4 2 1 1 2 3 3 3 3 4 3 3 4 5 7 8 9 10 11 11 11 10 10 10 10 10 11 11 11 12 12 12 12 12 12 12 12 12 12 12 13 13 13 14 13 13 13 13 13 12 12 11 11 10 10 10 11 11 11 11 11 11 11 12 12 12 12 12 12 12 12
15 13 12 12 11 11 10 9 7 7 6 7 6 5 4 3 2 2 2 3 3 4 4 4 3 3 3 4 6 8 8 9 10 10 10 10 10 10 11 11 12 12 12 12 12 12 12 12 13 13 12 12 12 13 13 14 13 13 13 12 12 12 12 12 11 11 10 10 10 10 10 10 10 10 10 11 11 12 12 12 12 12 12 12 12
13 12 10 9 9 8 7 6 6 5 5 6 6 5 4 3 3 3 3 3 4 5 6 5 3 3 3 3 5 7 7 8 9 9 9 10 9 10 11 12 12 12 12 12 12 13 13 13 13 13 12 12 12 13 13 13 13 12 12 12 13 13 12 12 12 11 11 11 11 11 11 10 11 11 11 11 12 12 12 12 12 13 13 13 13
11 9 8 8 7 6 6 5 5 5 5 6 6 5 5 4 4 4 4 4 4 6 7 6 5 4 3 3 4 5 7 8 8 8 8 9 9 9 10 11 12 12 12 12 12 12 12 12 12 11 11 11 11 12 12 12 12 12 12 13 13 13 12 12 12 12 12 12 12 12 12 12 12 12 12 12 12 13 13 13 13 13 14 14 14
9 8 7 6 6 5 5 4 4 4 4 5 5 5 5 5 5 5 5 5 5 7 8 7 7 5 4 3 3 5 7 8 9 9 8 8 9 9 9 10 11 11 11 11 11 11 11 10 10 9 9 9 10 10 11 11 12 12 12 12 12 12 12 12 12 12 13 13 13 13 13 13 13 13 13 13 13 13 13 13 14 14 14 15 15
7 6 5 5 5 4 4 4 3 3 3 4 4 5 5 5 5 5 5 6 7 7 7 7 7 5 3 3 4 6 7 8 9 9 8 8 8 8 8 9 9 10 10 10 10 10 10 10 10 9 9 9 9 10 10 11 11 11 11 12 12 13 13 13 13 13 13 13 14 14 14 14 14 14 14 14 14 14 14 14 14 14 15 15 15
7 6 5 4 4 4 3 3 3 3 3 4 4 4 4 4 5 6 6 7 7 7 7 7 7 5 3 2 3 5 6 7 8 8 8 8 8 8 7 7 8 8 9 9 10 9 10 10 10 10 10 10 9 10 10 10 10 10 10 11 12 13 14 15 15 14 13 13 14 15 15 15 15 15 15 15 15 14 14 14 14 14 14 15 15
6 5 4 3 4 4 3 3 3 3 2 2 3 3 2 3 4 6 6 7 7 7 6 6 7 6 3 2 2 4 5 6 7 7 7 7 7 7 7 7 7 8 8 9 9 9 9 9 9 9 10 10 10 10 9 9 9 10 10 10 10 12 13 15 15 15 13 13 14 14 15 15 15 16 16 16 15 15 15 15 14 14 14 14 14
4 4 4 3 3 3 3 3 2 2 1 2 2 2 2 3 4 5 6 7 7 7 7 6 7 6 4 2 2 3 4 5 6 6 6 6 6 6 6 6 6 6 7 8 8 8 8 8 8 9 9 9 9 9 9 8 8 9 9 10 10 11 12 14 15 15 14 14 14 14 14 15 15 15 15 16 16 16 16 16 16 15 15 15 15
4 3 3 3 2 2 3 3 2 1 1 1 2 2 2 3 4 4 5 6 7 7 7 7 7 7 5 3 2 2 3 4 5 5 5 5 5 5 6 6 5 5 5 6 7 8 8 9 9 9 9 8 9 9 9 9 8 8 9 9 10 10 11 12 14 15 14 13 14 14 14 13 13 13 14 15 16 16 17 17 17 17 16 16 16
5 4 3 2 2 1 2 2 1 0 0 1 2 3 2 2 3 3 3 5 6 7 7 7 7 7 5 3 3 3 2 2 3 4 4 4 4 4 5 5 5 4 5 6 7 8 8 9 10 9 9 8 8 8 9 9 9 9 9 9 9 10 11 12 12 14 14 13 13 13 13 12 11 11 12 14 15 16 16 17 17 17 18 17 17
5 3 2 2 1 1 1 2 1 0 1 1 2 2 2 2 2 2 3 3 4 5 7 7 7 7 6 5 5 4 2 1 2 3 3 3 3 4 4 4 4 4 5 6 6 7 7 7 7 7 7 7 7 7 8 9 9 10 10 10 10 10 11 11 12 13 14 14 13 13 12 10 9 10 11 13 14 15 16 16 17 18 18 18 18
4 2 1 1 2 2 2 2 1 1 1 2 2 2 2 3 3 2 2 2 3 4 6 6 6 6 6 6 6 5 3 2 3 3 3 4 3 4 4 3 2 2 3 3 3 4 4 4 4 4 5 6 6 6 7 8 9 10 11 11 11 11 11 11 11 12 14 14 14 14 11 9 9 10 12 13 15 16 16 16 17 17 18 18 18
4 3 2 2 3 3 3 3 3 2 2 3 3 3 3 3 3 3 3 3 3 3 4 5 5 4 3 4 5 5 5 5 4 4 4 5 5 6 6 4 3 2 0 1 1 1 2 3 3 5 6 7 7 7 7 8 9 10 12 12 12 11 10 10 10 12 14 14 15 14 12 10 10 12 14 15 16 17 17 17 17 17 16 17 17
5 5 3 3 3 4 4 4 4 4 3 4 4 4 4 4 3 3 3 3 3 2 2 3 3 3 2 3 4 4 6 7 6 4 5 5 6 8 8 5 3 3 1 1 1 2 3 3 4 5 6 7 7 8 8 9 10 11 13 14 14 12 10 9 10 13 14 14 15 15 13 11 11 13 15 16 17 18 18 18 17 16 16 16 16
6 5 4 4 4 4 4 4 5 4 4 4 5 5 5 4 4 4 4 4 3 3 2 2 2 3 3 4 5 5 6 8 6 5 5 5 6 8 8 5 3 3 2 2 3 3 4 4 4 5 6 6 8 9 10 10 10 11 13 14 14 12 10 9 11 13 14 14 15 15 14 12 12 14 15 16 17 17 18 19 17 16 15 15 15
7 6 5 5 5 5 4 5 5 5 5 5 5 5 5 4 4 4 4 4 3 3 3 3 3 4 4 5 6 6 7 6 6 6 6 6 7 7 7 6 4 4 4 4 5 5 6 6 7 7 7 8 9 10 11 10 9 10 12 12 11 11 10 11 13 14 14 15 15 15 15 14 13 14 15 16 16 17 18 18 18 17 16 16 15
8 8 6 6 6 6 5 6 6 6 6 6 6 6 5 5 4 4 5 5 4 3 3 3 4 5 5 5 6 6 6 5 4 5 5 6 7 6 6 6 5 5 5 6 7 7 8 8 9 10 10 10 10 11 10 8 8 8 9 9 9 10 10 12 14 15 15 15 16 15 15 15 14 15 16 16 17 18 18 18 18 18 18 17 16
9 9 8 7 6 7 7 7 7 7 7 7 6 6 5 5 5 5 6 6 5 4 3 3 4 5 5 5 5 5 5 5 5 4 5 6 6 6 6 6 6 6 6 6 7 8 9 9 10 11 11 12 12 10 8 6 6 8 9 9 8 10 11 13 15 15 15 16 16 17 17 16 16 16 17 17 18 19 19 19 19 19 19 19 17
10 9 8 7 7 7 8 7 7 8 8 7 7 7 6 5 6 6 6 7 7 5 4 4 5 5 5 6 6 6 6 6 6 6 6 6 6 6 7 7 7 7 7 7 8 9 9 10 10 11 11 11 9 7 5 6 7 9 10 9 10 11 12 14 15 15 16 17 18 18 18 18 18 19 19 19 19 19 19 19 19 19 19 20 19
10 10 9 8 8 9 9 8 8 9 9 8 8 8 7 7 7 7 6 7 8 7 7 6 6 6 6 6 7 7 7 7 7 7 7 8 8 8 8 8 8 8 8 8 7 7 8 8 8 8 8 6 5 4 4 6 7 9 10 10 11 12 13 14 15 16 18 19 19 18 18 19 19 19 19 18 18 18 19 19 19 19 20 21 21
11 11 10 10 10 10 10 9 9 9 9 8 9 8 8 8 8 7 6 7 8 8 8 8 8 8 7 7 7 8 8 8 8 8 9 9 8 8 8 9 9 8 8 8 7 6 6 7 6 6 6 4 4 4 5 6 8 10 11 11 12 13 14 15 16 17 18 18 18 17 18 18 19 18 18 18 18 19 20 21 21 21 21 21 21
12 11 10 10 11 11 10 9 9 10 9 9 10 10 9 8 8 7 6 6 7 7 8 9 9 9 8 8 8 8 8 8 8 8 8 9 8 8 8 8 8 8 8 8 7 5 5 6 5 5 5 6 6 6 7 8 9 10 11 12 13 14 15 16 17 17 17 17 17 17 18 19 19 20 20 20 21 22 22 23 23 23 22 22 22
12 11 10 10 12 11 10 10 9 10 10 10 11 11 10 9 8 7 6 7 7 7 7 8 8 9 9 9 9 9 8 8 8 8 7 7 7 6 6 7 7 8 8 7 7 6 4 4 4 4 5 6 7 7 8 9 11 11 12 13 14 15 15 15 16 16 17 17 18 19 21 21 22 22 22 22 23 23 24 25 25 24 23 23 23
11 10 10 11 12 12 11 10 10 10 10 10 10 11 11 10 9 8 7 8 8 8 8 8 8 8 8 8 8 8 8 7 7 8 7 7 6 6 6 7 8 8 7 6 5 5 3 2 3 4 5 6 7 8 10 11 13 13 14 14 14 14 14 14 15 16 17 19 20 22 23 24 24 24 24 24 24 25 25 25 25 25 24 23 23
11 10 10 11 12 12 12 11 11 10 10 10 10 10 10 10 10 9 9 9 9 9 9 9 9 9 9 9 8 8 8 8 7 7 7 6 6 6 6 7 8 8 7 5 4 3 3 2 2 3 4 6 7 8 10 11 12 13 13 13 12 12 12 14 15 17 18 20 22 24 24 25 25 25 25 25 25 25 25 25 25 25 24 24 23
11 11 11 11 11 12 12 11 11 11 11 11 10 10 10 11 11 10 9 10 10 10 10 10 10 10 10 10 10 9 9 9 8 7 7 6 6 6 6 6 7 7 8 7 5 3 3 3 3 3 4 5 6 6 8 9 10 11 11 11 11 12 13 14 15 18 20 21 23 25 26 26 25 25 24 24 24 24 24 25 24 24 24 24 23
12 12 12 12 11 12 12 11 12 12 11 11 11 11 11 12 11 10 10 10 11 11 11 11 11 11 11 10 10 10 9 10 9 8 8 7 6 6 6 6 7 7 8 8 6 3 3 3 3 4 4 5 5 6 7 9 11 12 12 13 13 13 13 14 16 19 21 22 24 25 25 25 24 23 23 22 22 22 23 23 23 23 23 22 21
13 13 13 13 12 12 12 12 12 12 12 12 12 12 12 12 12 11 10 10 11 11 11 11 12 12 12 11 11 10 10 10 9 9 8 8 7 7 7 7 6 6 7 8 8 5 3 3 4 5 6 7 7 8 9 10 11 13 14 14 14 13 13 15 17 20 21 23 24 25 24 23 22 21 21 21 21 21 21 21 21 21 20 19 18
14 14 15 14 13 13 13 13 13 13 13 13 13 13 13 12 12 11 11 11 12 11 11 11 12 12 12 11 11 10 10 10 10 10 9 8 8 8 7 7 6 7 7 8 10 8 5 5 6 6 8 10 10 11 12 11 11 12 13 13 13 13 14 16 18 20 22 23 24 23 22 21 20 19 19 19 19 19 19 19 20 19 18 17 16
15 15 15 15 15 14 14 14 14 13 13 13 13 13 13 13 12 12 11 11 12 12 11 11 11 11 12 12 11 10 11 11 11 11 10 10 9 9 8 8 7 8 8 9 11 11 7 7 8 8 10 12 12 13 14 13 13 13 13 13 14 14 16 17 18 20 21 23 22 21 19 19 18 17 17 17 17 17 17 17 18 18 18 17 17
15 15 15 15 15 15 15 14 14 13 13 13 13 14 14 13 13 13 12 12 12 12 12 11 11 11 11 12 11 11 12 12 12 12 12 11 10 9 8 8 8 8 9 9 10 12 11 9 9 10 11 12 13 14 16 16 15 14 14 14 15 16 17 18 19 20 21 22 21 19 18 17 16 15 15 16 16 16 16 17 17 18 18 18 18
16 16 15 15 15 16 15 15 14 14 14 13 13 14 14 14 14 13 13 13 12 12 12 11 11 11 12 12 12 11 12 13 12 12 12 11 10 9 8 8 8 8 9 10 10 12 13 12 11 12 12 13 14 16 17 18 17 16 15 16 17 17 18 20 20 21 21 21 20 18 17 16 15 14 15 16 16 17 17 17 18 19 19 19 19
17 16 16 15 16 16 16 15 15 14 14 14 13 14 15 15 14 14 14 14 13 12 12 11 11 12 12 13 12 12 12 14 13 13 12 12 12 11 10 9 9 9 10 11 12 12 13 14 13 13 13 15 16 17 19 18 16 16 16 17 18 18 19 20 20 21 21 21 18 17 17 16 14 14 15 16 16 17 17 17 17 18 18 18 18
17 17 16 16 16 16 16 15 15 14 14 14 14 14 15 15 15 15 15 14 13 13 12 12 12 12 12 13 13 12 13 14 14 14 13 13 13 13 12 11 11 11 12 12 13 13 14 16 15 14 14 15 17 19 19 18 17 16 17 18 18 19 19 20 20 21 22 21 17 16 16 15 14 14 16 16 16 16 16 16 17 17 17 17 17
18 18 17 17 17 17 16 14 14 14 14 15 15 15 15 15 16 16 16 15 14 13 14 14 14 14 14 13 13 13 13 14 14 14 14 14 14 15 14 14 13 13 13 14 14 15 16 16 16 14 14 15 17 19 18 17 17 18 19 19 18 19 20 20 20 21 22 21 17 17 17 15 14 15 15 15 16 15 15 15 15 15 16 16 16
19 19 18 17 17 17 16 15 15 15 15 15 15 15 15 16 17 17 17 16 15 15 15 16 16 16 15 15 14 14 14 14 14 14 14 14 15 15 15 14 13 13 14 15 15 17 17 17 15 15 15 16 18 19 18 17 18 19 21 22 20 20 20 21 22 23 23 20 17 17 17 15 14 13 13 14 15 14 14 14 14 14 15 15 16
21 21 20 18 18 18 18 17 16 16 16 16 16 16 16 16 17 18 18 18 18 18 18 18 18 17 17 17 16 15 15 15 15 15 15 14 15 15 15 14 14 15 15 16 17 18 18 17 16 15 16 17 18 18 18 18 20 20 20 21 22 22 22 21 22 23 23 21 18 17 17 16 15 13 13 14 13 12 12 13 13 13 14 15 16
22 22 21 19 18 18 19 18 18 17 17 17 17 16 16 16 17 17 18 19 20 19 20 20 20 20 19 19 18 17 16 16 16 16 16 16 16 17 16 16 16 16 16 15 16 17 17 18 17 17 17 18 18 19 20 21 21 21 19 20 21 22 23 22 21 22 22 20 18 17 17 18 16 14 14 14 12 11 12 13 13 13 13 15 16
23 22 22 21 20 20 20 19 19 19 19 18 18 18 19 20 19 19 18 19 20 20 20 21 21 21 21 20 19 18 18 17 17 17 17 17 18 18 18 17 17 17 16 16 16 16 18 20 19 19 19 19 19 19 21 22 21 20 19 20 22 22 23 23 22 20 20 19 17 17 19 20 17 15 14 14 11 10 12 12 12 12 12 13 15
23 23 22 22 22 21 21 21 20 20 21 21 22 23 23 22 22 21 20 20 20 20 21 21 21 21 22 21 20 20 19 18 18 18 19 19 19 18 17 17 16 17 17 17 17 17 19 20 20 19 19 20 19 20 21 22 22 21 20 21 22 22 22 24 23 21 20 19 18 18 20 20 18 15 14 13 11 10 11 12 11 11 12 13 14
23 23 23 23 23 22 22 22 22 22 23 22 22 23 22 20 19 20 21 22 22 21 21 21 21 21 22 23 23 22 21 19 18 18 19 19 19 18 19 19 18 18 17 17 16 17 18 18 19 19 19 20 20 21 22 23 22 21 21 21 21 21 22 23 23 21 20 20 18 18 19 20 19 16 14 13 11 10 10 10 11 12 12 13 14
21 22 23 23 23 23 23 23 24 24 23 23 23 24 23 20 19 20 22 24 23 22 22 22 22 23 23 24 24 24 22 20 19 18 18 19 19 19 19 20 19 18 18 17 17 17 18 18 19 19 19 21 22 22 22 22 22 22 21 21 21 21 22 22 21 19 20 19 19 18 20 21 20 17 15 14 12 11 10 10 11 12 13 14 14
21 22 23 24 24 24 24 24 25 25 24 23 22 23 24 23 22 23 24 25 24 24 23 22 22 23 24 25 25 25 23 22 21 20 19 19 19 18 19 19 19 19 19 18 18 18 19 19 20 20 20 21 22 22 22 22 22 22 22 21 21 21 21 20 18 18 18 19 19 19 20 21 21 19 17 16 15 13 11 11 12 13 14 15 16
21 20 21 23 23 22 21 22 24 25 23 22 23 23 25 26 26 26 27 26 24 24 24 23 23 24 25 25 25 25 24 23 23 22 21 20 18 17 18 19 20 20 20 20 20 20 21 21 22 22 22 22 22 22 22 22 21 21 21 21 21 20 19 16 15 15 17 18 19 20 21 22 21 20 18 18 16 14 12 12 12 14 16 17 17
22 22 22 23 22 22 22 23 23 23 23 23 24 24 25 27 28 29 29 28 26 25 25 25 25 25 25 26 26 25 25 25 24 23 22 21 19 17 18 20 21 22 22 22 22 22 22 22 22 22 21 22 22 22 22 22 21 21 21 20 19 18 16 14 14 15 17 18 19 21 22 22 21 20 19 18 17 14 11 12 14 16 18 18 18
24 24 24 24 24 24 25 25 24 24 23 24 25 26 26 27 28 29 30 29 29 28 27 26 26 26 26 27 28 28 28 27 27 26 25 24 22 20 20 21 22 23 24 24 23 23 23 22 21 21 21 22 22 22 21 21 21 21 19 18 17 16 15 14 14 16 19 20 21 22 22 21 21 21 20 19 17 13 11 14 17 18 19 18 17
25 26 26 25 25 26 26 26 25 25 25 26 27 28 28 29 29 30 31 31 31 30 29 27 27 27 28 29 30 30 30 30 30 29 29 29 27 25 24 23 22 24 25 25 24 23 23 21 20 20 20 21 21 21 21 20 19 18 17 15 15 14 14 15 16 18 20 21 21 21 20 20 21 21 21 20 17 13 13 16 19 19 19 17 15
20 21 22 22 23 24 25 25 24 24 25 26 27 29 30 31 31 31 32 32 31 31 30 29 29 29 29 30 30 31 31 31 31 31 32 33 33 31 30 29 27 27 26 25 23 23 21 20 20 20 20 21 20 20 19 18 16 15 14 14 14 14 15 16 17 18 19 19 20 19 19 20 21 21 22 21 18 15 15 18 19 19 17 16 15
Wind_Direction
134 133 131 131 132 133 132 133 135 136 138 139 140 139 134 122 105 77 25 2 354 326 332 44 48 54 54 54 57 59 61 64 66 68 69 74 78 79 78 76 75 75 76 76 75 75 75 75 74 74 75 75 75 75 74 73 72 71 69 67 64 60 56 52 48 45 42 39 36 34 30 28 25 22 20 17 14 12 10 6 4 2 0 359 359
135 134 134 135 136 136 135 136 137 139 143 149 152 152 149 141 120 28 349 342 337 330 347 8 19 40 52 56 60 64 67 70 71 70 68 72 77 79 80 78 77 77 78 79 79 78 77 77 76 76 75 75 76 77 76 75 72 69 65 62 58 55 51 48 44 41 38 34 31 26 23 19 14 11 8 5 3 1 359 356 354 352 351 351 351
135 135 136 137 139 139 139 138 136 139 145 154 160 168 176 185 198 282 324 327 334 335 346 346 349 20 49 62 64 65 68 72 72 71 69 68 72 78 79 80 80 80 81 82 82 80 78 77 77 76 76 76 76 75 74 70 67 64 60 57 55 52 49 45 42 38 34 29 25 21 17 12 6 2 358 356 354 353 352 349 347 346 346 345 344
137 138 139 141 143 145 144 141 141 145 151 160 169 181 192 204 219 265 305 321 336 342 351 351 348 4 37 64 66 65 66 72 73 72 72 67 69 76 80 81 82 82 82 81 81 80 79 79 79 78 77 77 75 72 70 66 63 60 57 55 52 51 48 45 41 37 34 30 27 22 17 11 4 359 355 353 351 351 349 347 345 346 345 344 341
141 143 146 148 151 151 149 151 160 168 172 176 179 187 198 212 235 265 292 312 328 337 345 352 356 354 14 50 64 67 68 72 73 72 71 69 71 78 83 85 84 82 80 79 79 81 81 81 81 81 80 78 75 71 68 64 61 58 56 55 53 51 48 44 40 36 33 30 27 23 17 11 6 1 357 355 352 351 349 347 346 346 346 344 341
146 148 150 150 150 149 154 165 175 184 190 191 193 197 204 221 240 260 281 299 315 328 333 342 353 358 13 40 63 73 74 73 72 72 70 73 76 79 86 88 87 83 80 79 79 80 80 80 80 80 80 78 75 71 67 64 62 60 59 58 57 53 49 44 39 34 30 26 22 17 12 6 1 357 355 352 350 349 346 345 344 342 341 340 338
149 152 151 148 147 148 158 174 182 190 203 206 209 212 216 229 239 254 273 292 309 320 325 330 337 346 13 41 68 82 82 77 73 72 72 75 75 75 80 86 88 85 81 79 77 76 74 72 72 74 74 73 72 70 68 66 65 64 63 60 56 50 44 38 32 28 23 19 15 10 4 360 356 352 349 346 344 343 340 339 338 336 335 334 334
149 148 146 146 150 156 167 178 178 186 207 212 214 218 225 234 241 251 266 286 300 307 314 321 324 332 8 41 75 83 80 76 73 71 70 72 72 72 72 76 81 82 82 81 77 73 70 68 66 65 65 64 67 69 70 69 68 66 62 57 51 44 37 31 26 22 19 15 10 5 1 358 355 350 346 343 339 338 336 334 332 331 330 330 331
149 147 146 148 152 158 165 168 172 181 196 203 210 219 229 235 246 257 266 281 291 296 304 314 317 323 352 28 71 76 72 73 73 71 67 65 66 66 64 64 69 72 79 81 80 78 73 71 67 62 60 61 64 68 70 70 67 62 56 51 45 39 33 28 23 20 17 13 9 6 3 1 358 354 350 346 342 340 338 335 333 331 330 330 332
152 153 153 152 153 156 163 171 175 178 183 198 211 221 236 248 257 265 269 278 284 288 295 303 306 310 331 359 54 64 70 78 82 81 71 62 58 58 59 60 63 67 73 78 81 81 77 73 67 63 61 64 67 67 67 64 60 54 46 40 33 27 24 22 20 17 14 11 10 8 6 4 2 360 357 355 352 350 349 346 344 341 339 337 336
160 160 154 152 154 158 165 168 163 163 185 217 224 228 248 260 263 268 273 277 279 283 287 290 293 301 316 337 17 45 72 85 87 85 76 65 56 55 57 60 65 70 71 72 76 77 76 74 70 66 64 63 64 60 57 53 48 42 33 26 20 14 13 14 13 11 8 7 9 8 6 6 7 7 6 5 3 2 0 358 355 352 349 345 342
180 173 157 146 149 153 156 153 139 141 209 224 214 214 234 251 258 265 274 275 275 280 283 279 283 294 304 317 350 24 73 82 74 69 70 66 56 51 51 53 62 72 72 70 72 74 79 81 76 71 67 65 62 57 51 45 39 30 21 16 12 8 8 9 8 6 3 2 4 6 7 9 12 14 12 10 8 7 6 4 0 357 354 351 346
183 178 161 149 152 156 155 148 132 116 245 204 195 203 219 244 256 265 274 276 277 280 281 275 277 285 291 306 331 348 25 53 49 45 47 45 44 46 47 53 61 73 83 82 78 81 88 88 78 71 69 66 62 55 47 40 33 25 16 8 4 2 4 6 4 3 1 358 358 1 5 9 12 12 9 7 6 5 5 3 1 359 356 354 349
172 160 152 174 197 238 176 157 160 245 281 226 211 219 231 252 264 274 271 268 276 280 279 275 273 279 283 298 321 329 332 3 29 24 25 28 30 31 33 50 65 81 101 100 88 86 92 90 75 65 60 54 49 42 36 30 24 18 12 5 358 354 356 359 360 359 359 356 354 355 359 2 2 360 358 358 358 358 358 357 357 356 356 355 352
168 155 167 231 248 253 208 175 179 214 250 243 235 231 237 251 257 262 252 239 260 273 277 274 273 282 283 295 321 333 345 12 21 12 14 20 16 7 0 9 38 72 117 111 92 85 84 73 54 39 28 21 17 14 13 13 11 9 6 2 355 350 348 351 353 354 354 355 354 352 350 348 348 346 347 348 348 348 348 347 347 348 350 350 351
192 199 220 253 248 235 218 201 200 220 249 243 231 224 231 245 246 249 244 233 242 263 283 282 275 279 280 304 328 337 346 349 347 347 350 358 3 358 349 336 330 329 297 112 87 64 36 17 4 356 353 350 349 347 347 351 356 359 360 357 352 346 343 346 348 349 351 355 357 355 348 339 337 338 340 342 342 341 339 338 338 337 339 340 342
210 215 236 260 242 228 225 218 216 228 246 238 227 220 225 237 243 249 248 242 243 261 301 301 272 259 268 316 334 342 343 337 331 330 335 342 353 355 351 335 313 311 299 286 299 323 334 336 339 342 343 343 345 343 338 338 342 349 353 352 349 344 342 345 344 344 348 353 356 357 353 340 333 333 335 337 337 336 334 333 332 330 329 330 332
223 225 242 257 243 232 232 231 226 223 225 228 224 217 216 224 236 246 250 249 247 260 287 302 281 263 278 306 318 321 328 330 324 320 327 332 338 346 350 341 307 285 266 270 287 298 305 313 327 334 335 335 337 337 332 330 333 342 349 349 347 345 344 343 339 340 345 349 351 354 354 345 333 330 330 333 334 333 332 331 329 327 326 327 328
228 233 243 246 243 240 236 235 231 224 223 223 220 216 212 215 224 234 244 247 243 251 270 286 287 279 284 300 309 311 314 319 319 316 323 328 326 329 335 332 315 289 270 265 273 282 290 297 306 315 320 322 324 329 329 326 330 339 346 349 348 347 343 337 334 335 339 343 346 349 349 343 334 329 328 330 331 330 330 330 329 329 328 328 328
226 231 234 233 239 243 240 235 231 232 230 225 223 222 219 219 219 224 234 239 236 241 260 275 279 279 280 289 301 305 300 296 301 308 315 319 318 317 317 314 310 305 284 270 277 288 293 297 303 308 312 314 314 320 325 326 332 340 343 345 347 346 340 333 331 332 334 337 340 341 340 338 333 329 326 326 327 326 327 328 329 329 328 326 326
224 226 226 225 232 238 240 237 233 234 231 227 232 235 233 230 228 230 233 237 235 238 257 268 269 272 273 277 283 287 282 276 279 292 304 309 309 309 312 304 295 298 295 288 293 299 301 303 305 304 306 309 310 314 320 321 325 330 331 334 338 340 336 333 332 332 332 331 331 330 329 329 327 323 321 320 321 321 323 325 326 327 328 326 324
223 226 225 224 228 231 234 237 236 236 234 234 240 244 245 244 245 245 242 241 239 242 256 267 270 272 274 274 274 278 281 280 281 289 298 301 299 299 307 307 297 293 294 295 297 296 297 298 298 299 303 308 307 302 302 306 314 321 324 327 331 331 330 330 330 329 328 326 324 323 321 319 318 317 316 314 314 316 320 323 324 325 327 327 326
224 227 227 226 232 231 229 232 234 235 237 241 243 247 249 252 257 260 254 248 244 246 253 263 272 278 279 276 273 275 281 286 289 293 295 293 293 293 298 304 302 298 295 296 295 292 295 298 300 303 304 305 294 281 295 305 311 316 318 323 325 323 322 324 325 324 324 323 322 322 322 321 320 317 316 314 313 314 318 320 321 322 324 326 327
223 226 227 226 232 233 229 230 231 234 238 239 238 242 248 256 264 267 266 258 250 251 255 260 269 277 282 280 274 274 276 283 288 293 292 287 287 289 292 298 301 300 300 298 294 288 292 296 301 303 296 287 282 289 304 304 303 307 310 315 319 319 320 322 322 322 321 321 322 324 327 328 326 322 317 315 314 313 314 315 316 316 318 321 324
225 227 229 229 232 232 231 231 232 236 239 237 236 240 249 258 265 269 274 271 266 265 265 265 268 272 278 280 281 281 279 279 282 286 288 285 285 291 294 297 300 304 306 305 299 290 287 291 296 296 286 284 293 298 300 299 299 302 304 309 315 317 319 320 320 320 321 322 324 326 328 328 326 322 318 314 313 312 312 312 312 313 314 317 321
230 230 229 231 232 232 231 230 232 238 241 241 243 245 251 257 261 264 268 270 273 275 274 271 271 270 271 274 279 283 281 279 280 283 286 287 289 295 302 307 309 312 315 318 313 300 291 289 286 287 287 289 294 295 293 297 301 303 305 309 314 316 318 318 318 321 324 326 327 328 329 328 326 323 319 315 313 312 312 312 312 311 311 313 317
239 236 231 229 232 231 230 232 235 241 244 246 249 251 254 257 259 260 259 263 268 273 275 274 275 275 271 270 271 272 273 274 277 281 283 287 292 298 308 315 319 319 320 330 331 314 309 293 264 276 294 295 295 295 295 298 302 305 308 312 315 317 316 317 320 324 326 326 327 329 330 328 325 322 318 315 313 312 313 313 313 312 311 311 313
243 241 235 233 235 233 232 234 237 241 244 247 250 253 255 258 259 257 257 260 261 266 272 273 275 276 273 270 267 264 264 264 267 275 279 286 292 299 313 322 325 328 329 340 358 351 348 346 281 291 309 306 304 305 305 305 307 309 311 314 316 316 317 320 323 323 323 324 327 329 328 326 324 321 318 315 314 313 313 313 314 314 313 313 312
245 243 239 238 239 237 235 237 240 242 243 244 248 249 251 255 256 255 255 258 260 261 265 269 271 270 270 270 268 264 262 263 266 267 274 286 293 297 310 319 326 333 336 343 5 42 25 0 341 331 331 324 321 319 315 312 312 312 313 314 315 317 320 322 322 320 321 324 327 328 327 326 325 324 322 320 318 317 316 317 318 318 317 316 314
248 245 242 241 241 240 237 238 243 246 244 244 245 245 247 251 253 253 252 255 260 260 262 266 268 267 267 267 268 267 264 265 265 262 266 280 290 296 301 306 315 325 331 335 345 20 25 2 348 339 338 338 335 331 325 315 310 310 309 309 313 317 320 321 320 321 323 326 328 328 328 328 328 328 328 328 327 325 325 326 327 327 326 325 325
249 248 247 246 246 243 240 240 243 247 248 246 246 246 247 250 253 254 253 255 259 260 261 264 265 264 263 262 265 266 265 265 264 261 263 268 278 291 293 290 297 310 320 323 322 330 346 340 340 338 333 338 341 338 334 325 319 317 313 313 317 320 320 320 322 324 326 328 330 330 330 329 330 331 332 333 332 332 333 334 337 338 337 338 340
251 251 251 251 251 248 246 245 244 246 248 248 249 250 251 254 256 256 256 258 262 263 264 264 262 260 258 259 262 263 263 264 262 261 262 263 270 279 277 272 282 298 308 311 310 312 319 320 322 327 328 335 342 339 336 336 335 333 327 325 326 323 320 321 322 324 326 329 332 332 330 330 331 333 333 332 332 332 334 336 338 339 339 340 342
251 253 254 254 254 253 251 250 250 249 248 249 251 254 256 258 260 260 259 260 265 270 270 266 262 260 259 260 261 258 257 259 260 259 262 266 270 269 262 261 273 289 299 306 307 307 310 317 322 327 330 335 339 337 336 339 341 341 338 332 327 323 320 320 322 324 327 331 333 332 331 331 331 331 331 329 328 328 329 331 333 334 334 335 336
251 253 254 255 255 256 255 254 254 253 252 252 252 255 259 261 262 262 261 261 264 269 271 268 264 263 263 263 262 256 252 255 260 262 264 266 266 259 254 259 267 275 285 294 300 302 305 312 321 328 331 331 333 336 338 338 337 338 337 332 326 323 322 323 324 326 329 333 335 332 331 332 331 329 328 326 324 322 322 324 325 327 328 328 329
255 255 256 256 256 256 256 256 256 256 257 256 253 255 258 261 262 262 261 261 261 263 265 266 266 264 263 262 262 257 250 252 259 264 265 259 251 247 250 257 262 266 275 283 289 295 301 306 316 326 329 328 330 333 335 334 331 330 330 327 324 324 324 325 325 327 331 336 336 333 331 331 329 329 329 327 324 320 319 320 322 324 326 325 325
258 258 258 257 255 254 255 256 257 258 258 257 255 256 256 259 261 261 261 262 261 260 260 262 265 264 261 261 262 259 253 252 256 259 258 250 241 242 247 251 255 262 268 274 281 288 293 299 310 319 323 324 327 330 330 328 325 323 322 321 321 322 323 324 325 327 333 337 338 335 332 330 329 329 329 328 326 322 320 320 321 325 327 326 325
256 258 257 255 253 253 254 255 257 257 257 257 257 258 259 260 260 259 259 259 259 260 261 262 263 260 259 260 263 263 260 257 257 256 254 249 243 244 250 256 261 266 269 272 276 280 285 294 303 311 317 320 323 327 327 324 320 319 318 319 321 321 320 321 324 328 333 338 339 337 335 333 332 331 330 329 328 325 322 320 321 324 326 326 327
252 253 252 250 249 249 249 252 256 258 259 260 260 261 263 263 261 258 253 252 255 259 261 263 263 261 259 259 261 265 265 263 261 259 257 252 249 250 256 263 267 268 270 271 273 275 281 290 298 306 313 316 320 324 323 320 318 319 320 320 321 320 320 322 325 328 333 338 340 340 337 337 336 334 333 332 331 329 325 322 323 325 324 325 328
248 248 246 245 245 246 247 248 253 258 262 264 264 265 266 266 265 261 253 250 254 259 261 261 260 260 258 257 258 262 264 263 261 260 259 256 254 256 259 263 267 269 270 271 271 274 279 286 292 298 304 309 315 321 321 318 316 319 320 319 320 321 322 324 326 328 331 335 340 341 340 341 342 339 338 337 335 331 327 327 330 330 330 331 332
244 244 242 241 243 247 248 249 253 256 260 263 265 266 268 268 268 265 260 257 260 263 263 260 258 257 256 255 257 258 257 257 258 258 256 254 255 258 260 264 271 276 277 275 272 272 276 280 284 288 294 302 309 313 314 314 314 316 318 318 320 323 324 325 326 327 327 331 338 343 343 345 347 345 345 344 339 334 332 334 337 338 339 339 338
245 243 240 239 243 248 248 249 254 257 260 263 264 267 270 273 273 271 268 265 265 267 266 262 258 255 252 251 252 253 252 251 253 254 252 252 256 261 263 268 275 279 280 277 272 272 274 276 279 283 289 296 301 304 307 311 312 314 316 317 319 322 322 322 325 327 325 328 337 344 345 346 349 350 352 350 343 337 337 341 344 346 346 343 341
248 247 244 242 243 248 250 251 255 259 263 265 265 266 268 270 273 273 272 270 268 268 268 265 261 256 252 250 249 249 250 250 253 254 252 254 259 265 267 269 273 276 276 274 273 273 273 273 277 282 286 290 295 300 304 308 309 311 313 315 316 319 320 320 325 328 325 326 335 343 345 346 347 351 357 356 344 336 339 346 349 349 346 344 342
248 247 246 245 244 246 249 252 255 259 263 265 267 267 267 268 270 271 272 272 271 270 270 268 266 261 254 250 248 249 250 251 254 255 255 257 261 266 268 267 270 273 272 272 274 275 275 276 278 282 286 290 294 298 302 304 305 308 311 314 315 318 320 321 326 327 323 324 333 340 341 341 342 349 360 359 343 332 339 346 345 341 339 340 341
245 244 244 244 244 244 245 249 254 258 261 265 268 269 269 270 273 274 273 271 270 271 272 271 270 266 259 253 251 250 251 253 255 256 257 260 262 264 264 264 267 270 269 271 275 278 279 279 281 284 288 291 293 296 299 301 303 307 310 312 314 316 318 322 325 323 319 322 330 335 337 337 336 342 356 360 344 328 328 332 331 331 332 333 336
243 245 245 244 245 246 249 254 258 260 261 264 266 267 266 267 272 275 273 271 270 270 271 270 270 270 265 258 254 252 253 254 257 257 258 259 260 261 261 263 264 265 264 268 273 276 278 279 282 285 287 289 292 295 298 300 302 305 307 309 310 312 316 319 319 316 315 319 326 332 333 332 330 334 347 355 346 330 321 316 319 327 330 330 333
247 247 249 249 249 250 254 259 262 263 264 265 266 265 263 262 265 269 270 270 270 269 270 270 270 271 269 264 258 255 252 252 254 257 257 256 256 258 261 263 262 261 262 266 270 274 277 280 283 285 286 288 291 293 295 297 299 303 305 307 309 311 314 317 315 312 313 316 321 327 327 326 326 330 338 346 345 336 324 313 315 326 331 333 334
254 252 253 256 256 256 259 262 264 265 266 267 267 266 263 261 261 263 266 267 267 267 269 270 271 272 269 264 260 256 252 250 253 255 253 252 255 260 265 265 263 262 263 266 271 275 278 281 284 285 287 288 289 291 293 294 296 300 304 307 309 313 317 318 314 308 307 310 315 321 323 322 323 326 333 340 342 337 326 315 319 329 334 336 336
260 257 257 258 261 264 265 264 265 266 266 267 268 268 266 264 262 262 263 265 264 265 267 269 271 270 265 260 259 257 253 252 254 254 250 249 251 255 260 263 264 264 266 269 273 276 279 281 282 284 286 286 288 290 291 294 296 299 304 307 311 316 318 316 311 304 303 307 313 317 319 319 319 322 329 336 339 337 326 319 325 334 338 340 339
261 259 258 259 262 266 266 263 263 266 267 267 267 266 265 264 264 263 262 263 263 263 265 267 269 268 263 259 258 257 254 253 254 253 248 247 248 249 251 255 261 265 267 270 275 279 279 279 279 280 282 284 286 288 290 293 296 299 303 308 310 311 310 307 306 304 304 308 312 314 315 315 316 319 324 331 337 336 327 326 333 339 341 342 341
263 262 262 263 263 264 264 263 263 265 266 265 266 266 265 263 263 262 261 260 260 261 261 262 263 263 262 259 259 259 258 258 259 257 252 248 247 247 246 246 252 261 266 268 274 278 278 276 276 277 281 284 286 288 289 291 293 295 299 303 303 304 306 307 308 307 306 307 309 311 312 313 314 316 321 328 333 334 330 332 337 340 341 341 340
272 271 270 270 269 267 267 267 266 265 264 265 266 267 266 265 263 262 261 260 259 259 259 259 258 258 259 259 261 262 262 263 264 263 257 252 249 248 249 249 249 254 261 265 270 274 274 272 275 278 280 282 283 285 287 287 288 291 294 297 299 303 307 309 310 309 308 306 307 310 311 312 314 317 321 327 331 332 333 335 337 340 341 338 337